Location: Unspecified
(0.0000°N, 0.0000°E)
Time: 19:38:57
(UTC+00:00)

Orbcomm A3 (FM07) - Visible Passes

Search period start: 18 May 2026 00:00
Search period end: 28 May 2026 00:00
Orbit: 733 x 735 km, 45.0° (Epoch: 18 May)

Date Brightness Start Highest point End Pass type
(mag) Time Alt. Az. Time Alt. Az. Time Alt. Az.
20 May 9.2 19:22:15 10° S 19:23:51 17° S 19:23:51 17° S visible
21 May 9.0 18:33:47 10° SSE 18:36:32 14° SE 18:38:19 12° ESE visible
21 May 9.2 20:15:48 10° SW 20:17:56 24° WSW 20:17:56 24° WSW visible
22 May 7.2 19:25:52 10° SW 19:31:04 74° SE 19:33:05 38° NE visible
23 May 7.8 18:36:17 10° SSW 18:41:10 40° SE 18:46:03 10° ENE visible
23 May 9.7 20:21:38 10° W 20:25:32 21° NW 20:28:53 12° N visible
24 May 8.9 19:30:49 10° WSW 19:35:36 37° NW 19:40:23 10° NNE visible
25 May 7.8 18:40:32 10° SW 18:45:43 67° NW 18:50:53 10° NE visible
26 May 9.6 05:24:05 10° NNW 05:28:33 29° NE 05:33:03 10° ESE visible
26 May 10.4 19:37:56 10° WNW 19:40:15 13° NW 19:42:33 10° NNW visible
27 May 10.3 04:35:21 10° N 04:38:37 17° NE 04:41:53 10° E visible
27 May 10.0 18:46:13 10° W 18:50:16 23° NW 18:54:19 10° N visible
